AirNav   Pilot Hours Calculator
 
 454 users online  

KPAO Palo Alto Airport
Palo Alto, California, USA

GOING TO PALO ALTO?


FAA INFORMATION EFFECTIVE 31 JANUARY 2019

Location

FAA Identifier: PAO
Lat/Long: 37-27-40.0000N / 122-06-54.2000W
37-27.666667N / 122-06.903333W
37.4611111 / -122.1150556
(estimated)
Elevation: 6.8 ft. / 2.1 m (surveyed)
Variation: 15E (1995)
Time zone: UTC -8 (UTC -7 during Daylight Saving Time)
Zip code: 94303

Airport Operations

Airport use: Open to the public
Activation date: 04/1940
Control tower: yes
ARTCC: OAKLAND CENTER
FSS: OAKLAND FLIGHT SERVICE STATION
NOTAMs facility: PAO (NOTAM-D service available)
Attendance: 0600-2000
Wind indicator: lighted
Segmented circle: yes
Lights: ARPT LGTS OPERATE CONTINUOUSLY WHEN ATCT CLSD.
Beacon: white-green (lighted land airport)
Operates sunset to sunrise.

Airport Communications

CTAF: 118.6
UNICOM: 122.95
ATIS: 135.275
PALO ALTO GROUND: 125.0 [0700-2100]
PALO ALTO TOWER: 118.6 [0700-2100]
NORCAL APPROACH: 121.3 133.95 134.5
NORCAL DEPARTURE: 121.3
WX ASOS at NUQ (4 nm SE): 124.175 (650-604-1529)
WX AWOS-3P at SQL (7 nm NW): 125.9 (650-593-0613)
WX ASOS at SJC (11 nm SE): 126.95 (408-969-0838)
WX ASOS at HWD (12 nm N): PHONE 510-786-3052
WX ASOS at SFO (16 nm NW): PHONE 650-827-8593
WX ASOS at OAK (16 nm N): PHONE 510-214-1776
WX AWOS-3 at HAF (19 nm W): 127.275 (650-728-5649)
WX ASOS at LVK (20 nm NE): PHONE 925-606-5412
  • FREQ 121.5 NOT AVAILABLE.

Nearby radio navigation aids

VOR radial/distance  VOR name  Freq  Var
OSIr046/8.9WOODSIDE VOR/DME113.9017E
SJCr287/9.6SAN JOSE VOR/DME114.1016E
SFOr111/15.6SAN FRANCISCO VOR/DME115.8017E
OAKr145/16.7OAKLAND VOR/DME116.8017E
SAUr124/30.6SAUSALITO VOR/DME116.2017E
CCRr168/35.2CONCORD VOR/DME117.0017E

 
NDB name  Hdg/Dist  Freq  Var  ID
TRACY231/34.820315ETCY - -.-. -.--

Airport Services

Fuel available: 100LL JET-A
SELF-FUELING AVAILBLE 24/7.
Parking: tiedowns
Airframe service: MAJOR
Powerplant service: MAJOR
Bottled oxygen: LOW

Runway Information

Runway 13/31

Dimensions: 2443 x 70 ft. / 745 x 21 m
Surface: asphalt, in good condition
Weight bearing capacity: 
Single wheel: 12.5
Runway edge lights: medium intensity
RUNWAY 13  RUNWAY 31
Latitude: 37-27.825110N37-27.509270N
Longitude: 122-07.059140W122-06.746155W
Elevation: 6.7 ft.6.8 ft.
Traffic pattern: leftright
Runway heading: 127 magnetic, 142 true307 magnetic, 322 true
Markings: basic, in good conditionnonprecision, in good condition
Visual slope indicator: 2-light PAPI on left (4.00 degrees glide path)2-light PAPI on left (4.00 degrees glide path)
Runway end identifier lights: yesyes
Touchdown point: yes, no lightsyes, no lights
Obstructions: 8 ft. berm, lighted, 300 ft. from runway, 12:1 slope to clear
RY 13 +8 FT DIKE 300 FT FROM RY END, OBSTN LGTD.
5 ft. berm, lighted, 230 ft. from runway, 6:1 slope to clear
RY 31 +5 FT DIKE 230 FT FROM RY END, OBSTN LGTD.

Airport Ownership and Management from official FAA records

Ownership: Publicly-owned
Owner: CITY OF PALO ALTO
250 HAMILTON AVENUE
PALO ALTO, CA 94301-2531
Phone (650) 329-2444
Manager: ANDREW SWANSON
250 HAMILTON AVENUE
PALO ALTO, CA 94301-2531
Phone (650) 329-2444

Airport Operational Statistics

Aircraft based on the field: 99
Single engine airplanes: 90
Multi engine airplanes: 8
Gliders airplanes: 1
    
Aircraft operations: avg 525/day *
60% local general aviation
40% transient general aviation
<1% air taxi
* for 12-month period ending 22 May 2018

Additional Remarks

+100 FT TRANSMISSION TWRS E OF ARPT.
ARPT RSTRD BY ARPT OPR TO ACFT WITH MAX CERTD WT OF 12500 LBS OR LESS.
FOR CD WHEN ATCT IS CLSD CTC NORCAL APCH AT 916-361-3748.
BIRDS ON AND INVOF AP.
TPA 1000 FT W & 800 FT E.
NOISE SENSITIVE AREA SE THRU NW OF ARPT. RCMD ACFT LDG AT PALO ALTO ARPT FLY AT OR ABOVE 1500 FT UNTIL XNG THE BAYSHORE FREEWAY, AND RCMD ACFT DEP RWY 31 TURN 10 DEG RIGHT AFTER TKOF TIL RCHG DUMBARTON AUTO BRIDGE.
BE ALERT FOR PEDESTRAINS XNG A DIKE ROAD 8 FT HIGH AND 300 FT FROM RWY 13 END.
CONS PEDESTRIAN/VEHICLE ACT ON ACFT TAXI LANES NOT DESIGNATED AS TWY MOV AREAS.
ARPT SCTY PRODS IN EFCT.
ON APCH TO RWY 31 BE ALERT TO POSS STG UPDRAFT FM WIND TUNNEL LCTD ON W SIDE OF MOFFETT FEDERAL AIRFIELD.

Instrument Procedures

NOTE: All procedures below are presented as PDF files. If you need a reader for these files, you should download the free Adobe Reader.

NOT FOR NAVIGATION. Please procure official charts for flight.
FAA instrument procedures published for use from 31 January 2019 at 0901Z to 28 February 2019 at 0900Z.

 
STARs - Standard Terminal Arrivals
POINT REYES THREE   download (229KB)
POINT REYES THREE   download (229KB)
 
IAPs - Instrument Approach Procedures
GPS RWY 31   download (208KB)
VOR/DME RWY 31   download (187KB)
NOTE: Special Alternate Minimums apply   download (33KB)
NOTE: Special Take-Off Minimums/Departure Procedures apply   download (180KB)

Other nearby airports with instrument procedures:

KNUQ - Moffett Federal Airfield (4 nm SE)
KSQL - San Carlos Airport (7 nm NW)
KSJC - Norman Y Mineta San Jose International Airport (11 nm SE)
KHWD - Hayward Executive Airport (12 nm N)
KSFO - San Francisco International Airport (16 nm NW)
KRHV - Reid-Hillview Airport of Santa Clara County (16 nm SE)
KOAK - Metropolitan Oakland International Airport (16 nm N)
KHAF - Half Moon Bay Airport (19 nm W)
KLVK - Livermore Municipal Airport (20 nm NE)
 
Loc | Ops | Rwys | IFR | FBO | Links
Com | Nav | Svcs | Stats | Notes

Watsonville Municipal Airport
 
Area around KPAO (Palo Alto Airport)
 
Road maps at: MapQuest Bing Google
 
Aerial photo
WARNING: Photo may not be current or correct
Aerial photo of KPAO (Palo Alto Airport)
Photo taken 11-Jan-2015
looking south-southwest.

Do you have a better or more recent aerial photo of Palo Alto Airport that you would like to share? If so, please send us your photo.

 
Sectional chart

 
Airport diagram
Diagram of KPAO (Palo Alto Airport)
Download PDF
of official airport diagram from the FAA

 
Airport distance calculator
Flying to Palo Alto Airport? Find the distance to fly.

From to KPAO

Sunrise and sunset
Times for 20-Feb-2019
 Local
(UTC-8)
 Zulu
(UTC)
Morning civil twilight06:2614:26
Sunrise06:5314:53
Sunset17:5201:52
Evening civil twilight18:1802:18

Current date and time
Zulu (UTC)  21-Feb-2019 06:24:21
Local (UTC-8)  20-Feb-2019 22:24:21
 
METAR
KPAO 210147Z 27020KT 10SM BKN035 A2980 RMK WIND ESTIMATED
KNUQ 
5nm SE 
210556Z AUTO VRB05KT 10SM CLR 09/03 A2978 RMK AO2 SLP086 T00890033 10128 20089 57005
KSQL 
7nm NW 
210600Z AUTO 31014G20KT 10SM FEW028 09/03 A2976 RMK AO2
KSJC 
11nm SE 
210553Z 31012KT 10SM FEW032 FEW065 08/04 A2977 RMK AO2 SLP081 T00830039 10122 20083 56004
KHWD 
12nm N 
210554Z AUTO 29008KT 10SM CLR 08/02 A2976 RMK AO2 SLP086 T00830017 10133 20083 56007
KOAK 
15nm N 
210553Z 31009KT 10SM FEW025 FEW070 09/02 A2976 RMK AO2 SLP077 T00890022 10133 20089 56008
KSFO 
15nm NW 
210556Z 29016G25KT 10SM FEW030 FEW150 08/03 A2976 RMK AO2 SLP077 T00830028 10122 20083 56008 $
KRHV 
17nm SE 
210547Z 31010KT 10SM SKC 09/04 A2975 RMK LAST
TAF
KSJC 
11nm SE 
210522Z 2106/2206 31012KT P6SM FEW020 SCT040 FM210800 31006KT P6SM FEW040 SCT200 FM211900 31011G19KT P6SM FEW250 FM220400 33006KT P6SM SKC
KOAK 
15nm N 
210522Z 2106/2212 32011KT P6SM FEW025 BKN100 FM211200 02006KT P6SM FEW040 SCT250 FM212100 30015G22KT P6SM FEW250 FM220300 31008KT P6SM SKC
KSFO 
15nm NW 
210522Z 2106/2212 30014G25KT P6SM FEW030 FEW050 FM211100 32013KT P6SM FEW040 SCT250 FM212100 30015G24KT P6SM FEW250 FM220300 31012KT P6SM SKC
NOTAMs
Click for the latest NOTAMs
NOTAMs are issued by the DoD/FAA and will open in a separate window not controlled by AirNav.

 

 
 

FBO, Fuel Providers, and Aircraft Ground Support

  
 Business Name 
 
 Contact 
 
 Services / Description 
 
Fuel Prices
 
Comments
  
Rossi Aircraft 650-493-3326
650-493-1673
[web site]
[email]
Aviation fuel, Oxygen service, Aircraft maintenance

More info about Rossi Aircraft
Shell
100LL Jet A
FS $4.95 $4.75 
GUARANTEED
 
   7 read write
West Valley Flying Club 650-856-2030
650-856-7640
[web site]
Aviation fuel, Flight training, Aircraft rental, Aircraft maintenance, Flying club, Pilots lounge / snooze room, Computerized weather, Internet access, Restrooms

More info about West Valley Flying Club
100LL
FS $5.19 
 Updated 13-Feb-2019
 
   write
FS=Full service
Update Fuel Prices
 

Aviation Businesses, Services, and Facilities

  
 Business Name 
 
 Contact 
 
 Services / Description 
 
Distance
 
Comments
  
 Peninsula Avionics
650-858-2000
[web site]
[email]
Avionics sales and service, Aviation accessories, Courtesy transportation
 
FAA-Approved Repair Station   Avidyne   Garmin   S-TEC  
 
More info about Peninsula Avionics
on airport  
   4 read write
Sundance Flying Club 650-494-7768
[web site]
[email]
Flight training, Aircraft rental, Aerial tours / aerial sightseeing, Pilot supplies, Flying club
 
Wireless Internet Access (WiFi)  
 
More info about Sundance Flying Club
on airport  
   write
Stanford Flying Club 650-858-2200
[web site]
[email]
Flight training, Aircraft rental, Aircraft management, Pilot supplies, Flying club, Organization with aviation interests, Pilots lounge / snooze room, Computerized weather, ...

More info about Stanford Flying Club
0.7 miles  
   write
 

Would you like to see your business listed on this page?

 If your business provides an interesting product or service to pilots, flight crews, aircraft, or users of the Palo Alto Airport, you should consider listing it here.  To start the listing process, click on the button below
 
Add a business
 

Other Pages about Palo Alto Airport

www.flystanford.com/kpao.htm
 
Update a link
 
Copyright © AirNav, LLC. All rights reserved. Privacy Policy  Contact